CDT,Max TemperatureF,Mean TemperatureF,Min TemperatureF,Max Dew PointF,MeanDew PointF,Min DewpointF,Max Humidity, Mean Humidity, Min Humidity, Max Sea Level PressureIn, Mean Sea Level PressureIn, Min Sea Level PressureIn, Max VisibilityMiles, Mean VisibilityMiles, Min VisibilityMiles, Max Wind SpeedMPH, Mean Wind SpeedMPH, Max Gust SpeedMPH,PrecipitationIn, CloudCover, Events, WindDirDegrees
2013-8-1,78,67,56,58,53,46,94,64,32,30.02,29.98,29.90,10,10,5,15,4,21,0.00,3,,276
2013-8-2,80,70,60,62,54,47,92,61,32,30.00,29.90,29.84,10,10,4,13,5,20,0.00,3,Rain-Thunderstorm,293
2013-8-3,78,63,49,53,48,42,92,58,28,30.16,30.09,30.00,10,10,7,13,3,24,0.00,2,,310
2013-8-4,75,61,48,56,50,44,92,68,34,30.25,30.18,30.11,10,10,10,7,1,,0.00,3,,168
2013-8-5,73,64,54,64,58,51,94,80,59,30.11,29.96,29.87,10,8,2,14,6,21,0.01,5,Rain,186
2013-8-6,83,74,64,68,64,62,94,77,49,29.89,29.83,29.77,10,7,1,13,4,17,0.07,5,,228
2013-8-7,78,70,62,69,59,53,90,70,46,30.00,29.88,29.76,10,10,10,17,6,23,0.00,4,Thunderstorm,327
2013-8-8,80,66,52,58,53,49,89,63,37,30.06,30.02,29.99,10,10,10,8,3,,0.00,4,,81
2013-8-9,80,69,57,59,55,49,90,64,36,30.09,30.01,29.99,10,10,10,12,3,21,0.00,5,,284
2013-8-10,77,62,49,52,49,45,94,64,32,30.18,30.14,30.10,10,10,4,8,2,,0.00,3,,311
2013-8-11,71,62,53,63,58,50,94,86,71,30.15,30.10,30.04,10,9,2,8,2,,0.11,7,Rain,220
2013-8-12,79,70,62,64,58,52,96,70,41,30.03,29.98,29.94,10,7,0,10,3,16,0.00,5,Fog-Rain,326
2013-8-13,70,60,49,56,46,42,86,61,36,30.18,30.12,30.03,10,10,10,13,5,20,0.00,4,,17
2013-8-14,75,59,43,54,47,41,95,68,32,30.24,30.18,30.13,10,10,7,9,1,,0.00,2,,234
2013-8-15,80,66,53,54,51,41,89,64,26,30.16,30.13,30.09,10,10,10,9,2,,0.00,6,,264
2013-8-16,80,65,50,54,50,44,93,63,28,30.21,30.18,30.14,10,10,10,9,1,,0.00,2,,263
2013-8-17,83,66,50,54,51,47,94,64,30,30.26,30.21,30.17,10,10,2,9,2,,0.00,0,,120
2013-8-18,82,66,52,56,51,47,89,61,30,30.23,30.16,30.10,10,10,10,10,3,18,0.00,1,,188
2013-8-19,82,68,55,60,56,52,90,67,36,30.11,30.07,30.03,10,10,10,14,4,20,0.00,0,,219
2013-8-20,87,74,62,62,60,57,88,62,36,30.07,30.03,29.99,10,10,10,16,7,22,0.00,1,,202
2013-8-21,90,80,70,71,65,61,87,64,44,30.02,29.99,29.92,10,10,7,18,11,29,0.00,4,Rain,220
2013-8-22,81,72,64,69,63,54,93,79,39,30.15,30.08,30.01,10,8,2,14,2,,0.00,3,Rain-Thunderstorm,61
2013-8-23,82,68,54,61,54,49,88,61,32,30.21,30.16,30.13,10,10,10,12,3,18,0.01,1,,148
2013-8-24,85,72,58,64,57,46,75,60,46,30.25,30.20,30.14,10,10,10,14,7,17,0.00,1,,179
2013-8-25,90,80,71,67,65,63,79,61,44,30.18,30.13,30.08,10,10,10,21,12,26,0.00,0,,212
2013-8-26,91,82,72,72,67,62,79,63,48,30.14,30.04,29.96,10,10,10,16,10,22,0.00,1,,216
2013-8-27,94,84,74,72,68,66,78,61,40,29.96,29.89,29.82,10,10,10,16,9,22,0.00,0,,235
2013-8-28,86,76,67,72,67,64,93,79,50,30.07,30.00,29.87,10,8,1,9,5,,0.00,5,,70
2013-8-29,89,74,59,66,63,58,94,69,40,30.10,30.04,29.96,10,8,0,12,4,16,0.00,0,Fog,179
2013-8-30,92,82,70,72,67,62,89,66,43,29.96,29.87,29.80,10,10,5,14,8,20,0.00,4,,256
2013-8-31,84,72,61,62,60,57,91,69,40,29.91,29.86,29.79,10,10,10,9,5,,0.00,2,,91